| time (UTC) | temp F | wind direction | speed knots | gust knots | rain 1hr in | rain 24hr in | rain mn in | humidity % | barometer mb |
| 20260507185132 | 52 | 284 | 0.9 | 0.9 | 0.01 | 0.42 | 0.42 | 100 | 1012.4 |
| 20260507184630 | 52 | 342 | 0.0 | 1.7 | 0.02 | 0.42 | 0.42 | 100 | 1012.2 |
| 20260507184130 | 52 | 63 | 0.0 | 1.7 | 0.03 | 0.42 | 0.41 | 100 | 1012.1 |
| 20260507183631 | 52 | 5 | 0.9 | 1.7 | 0.04 | 0.41 | 0.41 | 100 | 1012.0 |
| 20260507183129 | 52 | 339 | 0.9 | 2.6 | 0.09 | 0.41 | 0.41 | 100 | 1012.0 |
| 20260507182630 | 52 | 53 | 0.0 | 2.6 | 0.12 | 0.41 | 0.41 | 100 | 1012.1 |
| 20260507182129 | 52 | 26 | 0.9 | 3.5 | 0.17 | 0.41 | 0.41 | 100 | 1012.1 |
| 20260507181622 | 52 | 26 | 0.9 | 4.3 | 0.25 | 0.41 | 0.41 | 100 | 1012.1 |
| 20260507181122 | 51 | 342 | 0.9 | 4.3 | 0.36 | 0.41 | 0.41 | 100 | 1012.0 |
| 20260507180620 | 51 | 24 | 1.7 | 7.0 | 0.39 | 0.41 | 0.41 | 100 | 1012.1 |
| 20260507180410 | 51 | 252 | 1.7 | 7.0 | 0.39 | 0.41 | 0.41 | 100 | 1012.1 |
| 20260507175614 | 51 | 260 | 0.9 | 4.3 | 0.39 | 0.41 | 0.41 | 100 | 1012.1 |
| 20260507175115 | 51 | 36 | 0.9 | 1.7 | 0.39 | 0.41 | 0.41 | 100 | 1012.0 |
| 20260507174616 | 51 | 38 | 1.7 | 5.2 | 0.39 | 0.40 | 0.39 | 100 | 1011.9 |
| 20260507174114 | 51 | 44 | 1.7 | 7.0 | 0.37 | 0.39 | 0.39 | 100 | 1011.7 |
| 20260507173611 | 51 | 51 | 2.6 | 7.0 | 0.35 | 0.36 | 0.36 | 100 | 1011.5 |
| 20260507173109 | 51 | 16 | 3.5 | 10.4 | 0.31 | 0.32 | 0.31 | 100 | 1011.5 |
| 20260507172608 | 50 | 248 | 4.3 | 10.4 | 0.28 | 0.29 | 0.28 | 99 | 1011.5 |
| 20260507172106 | 52 | 316 | 5.2 | 13.9 | 0.20 | 0.22 | 0.19 | 95 | 1011.2 |
| 20260507171606 | 55 | 68 | 7.8 | 24.3 | 0.14 | 0.16 | 0.12 | 90 | 1010.9 |
| 20260507171352 | 58 | 57 | 7.8 | 24.3 | 0.03 | 0.05 | 0.03 | 83 | 1011.1 |
| 20260507170606 | 60 | 296 | 6.1 | 18.2 | 0.00 | 0.02 | 0.02 | 78 | 1011.6 |
| 20260507170104 | 61 | 254 | 3.5 | 12.2 | 0.00 | 0.02 | 0.02 | 74 | 1010.8 |
| 20260507165602 | 61 | 67 | 3.5 | 10.4 | 0.00 | 0.02 | 0.02 | 73 | 1010.0 |
| 20260507165101 | 61 | 84 | 4.3 | 12.2 | 0.00 | 0.02 | 0.02 | 73 | 1010.1 |
| 20260507164601 | 61 | 38 | 5.2 | 13.0 | 0.00 | 0.02 | 0.02 | 73 | 1010.0 |
| 20260507164344 | 61 | 307 | 5.2 | 13.0 | 0.00 | 0.02 | 0.02 | 72 | 1009.8 |
| 20260507163603 | 62 | 16 | 5.2 | 13.0 | 0.00 | 0.02 | 0.02 | 72 | 1009.9 |
| 20260507163103 | 62 | 146 | 4.3 | 13.0 | 0.00 | 0.02 | 0.02 | 72 | 1010.0 |
| 20260507162604 | 63 | 339 | 3.5 | 11.3 | 0.00 | 0.02 | 0.02 | 71 | 1009.9 |
| 20260507162347 | 64 | 42 | 3.5 | 11.3 | 0.00 | 0.02 | 0.02 | 71 | 1009.7 |
| 20260507161845 | 65 | 51 | 2.6 | 7.0 | 0.00 | 0.02 | 0.02 | 69 | 1009.7 |
| 20260507161101 | 66 | 313 | 2.6 | 7.8 | 0.00 | 0.02 | 0.02 | 67 | 1009.7 |
| 20260507160602 | 67 | 350 | 2.6 | 7.8 | 0.00 | 0.02 | 0.02 | 65 | 1009.6 |
| 20260507160350 | 69 | 277 | 1.7 | 7.0 | 0.00 | 0.02 | 0.02 | 65 | 1009.8 |
| 20260507155603 | 69 | 298 | 1.7 | 7.0 | 0.00 | 0.02 | 0.02 | 65 | 1009.6 |
| 20260507155102 | 69 | 146 | 2.6 | 7.8 | 0.00 | 0.02 | 0.02 | 64 | 1009.5 |
| 20260507154600 | 69 | 149 | 5.2 | 13.0 | 0.00 | 0.02 | 0.02 | 65 | 1009.3 |
| 20260507154104 | 69 | 90 | 5.2 | 13.0 | 0.00 | 0.02 | 0.02 | 62 | 1009.4 |
| 20260507153603 | 70 | 109 | 4.3 | 16.5 | 0.00 | 0.02 | 0.02 | 63 | 1009.4 |
| 20260507153101 | 71 | 217 | 5.2 | 16.5 | 0.00 | 0.02 | 0.02 | 63 | 1009.3 |
| 20260507152602 | 70 | 136 | 6.1 | 14.8 | 0.00 | 0.02 | 0.02 | 62 | 1009.3 |
| 20260507152351 | 70 | 122 | 6.1 | 14.8 | 0.00 | 0.02 | 0.02 | 64 | 1009.2 |
| 20260507151601 | 71 | 144 | 4.3 | 12.2 | 0.00 | 0.02 | 0.02 | 63 | 1009.3 |
| 20260507151100 | 71 | 110 | 4.3 | 11.3 | 0.02 | 0.02 | 0.02 | 64 | 1009.4 |
| 20260507150603 | 72 | 146 | 2.6 | 7.8 | 0.02 | 0.02 | 0.02 | 61 | 1009.4 |
| 20260507145602 | 72 | 112 | 3.5 | 10.4 | 0.02 | 0.02 | 0.02 | 64 | 1009.4 |
| 20260507145102 | 71 | 150 | 5.2 | 13.9 | 0.02 | 0.02 | 0.02 | 65 | 1009.2 |
| 20260507144601 | 71 | 146 | 5.2 | 13.9 | 0.02 | 0.02 | 0.02 | 67 | 1009.3 |
| 20260507144108 | 69 | 158 | 4.3 | 10.4 | 0.02 | 0.02 | 0.02 | 68 | 1009.1 |
| 20260507143605 | 68 | 117 | 4.3 | 11.3 | 0.02 | 0.02 | 0.02 | 70 | 1009.1 |
| 20260507143058 | 67 | 122 | 5.2 | 12.2 | 0.02 | 0.02 | 0.02 | 72 | 1009.1 |
| 20260507142556 | 67 | 107 | 5.2 | 12.2 | 0.02 | 0.02 | 0.02 | 74 | 1009.1 |
| 20260507142042 | 67 | 137 | 5.2 | 12.2 | 0.02 | 0.02 | 0.02 | 75 | 1009.1 |
| 20260507141547 | 68 | 124 | 5.2 | 12.2 | 0.02 | 0.02 | 0.02 | 77 | 1009.3 |
| 20260507141041 | 70 | 136 | 4.3 | 11.3 | 0.00 | 0.00 | 0.00 | 62 | 1009.4 |
| 20260507140538 | 70 | 128 | 2.6 | 11.3 | 0.00 | 0.00 | 0.00 | 61 | 1009.5 |
| 20260507140313 | 71 | 144 | 2.6 | 7.8 | 0.00 | 0.00 | 0.00 | 60 | 1009.7 |
| 20260507135535 | 73 | 150 | 5.2 | 15.6 | 0.00 | 0.00 | 0.00 | 58 | 1009.7 |
| 20260507135033 | 74 | 135 | 7.0 | 15.6 | 0.00 | 0.00 | 0.00 | 57 | 1009.7 |
| 20260507134533 | 74 | 128 | 6.1 | 14.8 | 0.00 | 0.00 | 0.00 | 55 | 1009.7 |
| 20260507134034 | 75 | 126 | 3.5 | 11.3 | 0.00 | 0.00 | 0.00 | 54 | 1009.8 |
| 20260507133533 | 75 | 238 | 3.5 | 12.2 | 0.00 | 0.00 | 0.00 | 54 | 1009.8 |
| 20260507133033 | 76 | 155 | 3.5 | 12.2 | 0.00 | 0.00 | 0.00 | 53 | 1009.8 |
| 20260507132816 | 76 | 135 | 2.6 | 7.0 | 0.00 | 0.00 | 0.00 | 54 | 1009.9 |
| 20260507132032 | 74 | 184 | 3.5 | 11.3 | 0.00 | 0.00 | 0.00 | 53 | 1009.9 |
| 20260507131535 | 74 | 146 | 3.5 | 11.3 | 0.00 | 0.00 | 0.00 | 51 | 1009.9 |
| 20260507131308 | 75 | 128 | 4.3 | 11.3 | 0.00 | 0.00 | 0.00 | 53 | 1010.0 |
| 20260507130522 | 74 | 138 | 5.2 | 11.3 | 0.00 | 0.00 | 0.00 | 53 | 1010.0 |
| 20260507130008 | 74 | 159 | 7.0 | 13.9 | 0.00 | 0.00 | 0.00 | 52 | 1010.0 |
| 20260507125511 | 74 | 119 | 8.7 | 18.2 | 0.00 | 0.00 | 0.00 | 53 | 1010.2 |
| 20260507125004 | 74 | 80 | 6.1 | 18.2 | 0.00 | 0.00 | 0.00 | 53 | 1010.2 |
| 20260507124506 | 74 | 149 | 3.5 | 13.0 | 0.00 | 0.00 | 0.00 | 53 | 1010.3 |
| 20260507124002 | 74 | 131 | 4.3 | 12.2 | 0.00 | 0.00 | 0.00 | 55 | 1010.2 |
| 20260507123501 | 74 | 119 | 4.3 | 12.2 | 0.00 | 0.00 | 0.00 | 53 | 1010.3 |
| 20260507123241 | 75 | 215 | 3.5 | 10.4 | 0.00 | 0.00 | 0.00 | 53 | 1010.6 |
| 20260507122501 | 75 | 123 | 3.5 | 10.4 | 0.00 | 0.00 | 0.00 | 54 | 1010.5 |
| 20260507122001 | 74 | 93 | 3.5 | 12.2 | 0.00 | 0.00 | 0.00 | 54 | 1010.4 |
| 20260507121741 | 74 | 159 | 6.1 | 13.9 | 0.00 | 0.00 | 0.00 | 54 | 1010.5 |
| 20260507120956 | 74 | 121 | 6.1 | 13.9 | 0.00 | 0.00 | 0.00 | 54 | 1010.6 |
| 20260507120456 | 76 | 130 | 5.2 | 12.2 | 0.00 | 0.00 | 0.00 | 57 | 1010.7 |
| 20260507115953 | 75 | 74 | 4.3 | 12.2 | 0.00 | 0.00 | 0.00 | 55 | 1010.6 |
| 20260507115451 | 73 | 86 | 3.5 | 10.4 | 0.00 | 0.00 | 0.00 | 55 | 1010.5 |
| 20260507114953 | 72 | 142 | 4.3 | 10.4 | 0.00 | 0.00 | 0.00 | 54 | 1010.5 |
| 20260507114450 | 74 | 94 | 3.5 | 10.4 | 0.00 | 0.00 | 0.00 | 52 | 1010.6 |
| 20260507113949 | 75 | 98 | 3.5 | 9.6 | 0.00 | 0.00 | 0.00 | 53 | 1010.8 |
| 20260507113448 | 73 | 161 | 3.5 | 9.6 | 0.00 | 0.00 | 0.00 | 56 | 1010.7 |
| 20260507113227 | 73 | 123 | 2.6 | 7.0 | 0.00 | 0.00 | 0.00 | 55 | 1010.7 |
| 20260507112716 | 73 | 175 | 2.6 | 7.8 | 0.00 | 0.00 | 0.00 | 54 | 1010.7 |
| 20260507111941 | 72 | 152 | 2.6 | 7.8 | 0.00 | 0.00 | 0.00 | 57 | 1010.5 |
| 20260507111436 | 70 | 121 | 2.6 | 9.6 | 0.00 | 0.00 | 0.00 | 56 | 1010.5 |
| 20260507110931 | 72 | 117 | 2.6 | 9.6 | 0.00 | 0.00 | 0.00 | 56 | 1010.8 |
| 20260507110432 | 73 | 145 | 2.6 | 10.4 | 0.00 | 0.00 | 0.00 | 55 | 1010.8 |
| 20260507105932 | 72 | 69 | 3.5 | 10.4 | 0.00 | 0.00 | 0.00 | 55 | 1010.9 |
| 20260507105430 | 72 | 140 | 3.5 | 7.8 | 0.00 | 0.00 | 0.00 | 56 | 1010.9 |
| 20260507104929 | 71 | 110 | 2.6 | 6.1 | 0.00 | 0.00 | 0.00 | 55 | 1010.9 |
| 20260507104705 | 72 | 92 | 1.7 | 6.1 | 0.00 | 0.00 | 0.00 | 58 | 1010.9 |
| 20260507103930 | 73 | 94 | 2.6 | 7.8 | 0.00 | 0.00 | 0.00 | 55 | 1011.2 |
| 20260507103430 | 72 | 121 | 3.5 | 7.8 | 0.00 | 0.00 | 0.00 | 58 | 1011.2 |
| 20260507102934 | 72 | 132 | 2.6 | 7.0 | 0.00 | 0.00 | 0.00 | 60 | 1011.3 |
| 20260507102427 | 71 | 61 | 3.5 | 9.6 | 0.00 | 0.00 | 0.00 | 60 | 1011.2 |
| 20260507101921 | 71 | 90 | 2.6 | 9.6 | 0.00 | 0.00 | 0.00 | 60 | 1011.3 |
| 20260507101415 | 71 | 57 | 2.6 | 6.1 | 0.00 | 0.00 | 0.00 | 59 | 1011.4 |
| 20260507101145 | 71 | 186 | 1.7 | 6.1 | 0.00 | 0.00 | 0.00 | 58 | 1011.4 |
| 20260507100401 | 72 | 160 | 1.7 | 4.3 | 0.00 | 0.00 | 0.00 | 57 | 1011.6 |
| 20260507095856 | 71 | 203 | 2.6 | 6.1 | 0.00 | 0.00 | 0.00 | 59 | 1011.5 |
| 20260507095350 | 70 | 80 | 4.3 | 7.8 | 0.00 | 0.00 | 0.00 | 60 | 1011.5 |
| 20260507094844 | 70 | 71 | 3.5 | 7.8 | 0.00 | 0.00 | 0.00 | 60 | 1011.5 |
| 20260507094334 | 71 | 90 | 2.6 | 7.0 | 0.00 | 0.00 | 0.00 | 64 | 1011.7 |
| 20260507093831 | 70 | 87 | 1.7 | 7.0 | 0.00 | 0.00 | 0.00 | 62 | 1011.6 |
| 20260507093332 | 70 | 256 | 0.0 | 3.5 | 0.00 | 0.00 | 0.00 | 61 | 1011.6 |
| 20260507093113 | 69 | 198 | 0.9 | 2.6 | 0.00 | 0.00 | 0.00 | 62 | 1011.6 |
| 20260507092330 | 68 | 153 | 0.9 | 3.5 | 0.00 | 0.00 | 0.00 | 64 | 1011.6 |
| 20260507092110 | 67 | 259 | 1.7 | 5.2 | 0.00 | 0.00 | 0.00 | 66 | 1011.5 |
| 20260507091609 | 69 | 179 | 1.7 | 5.2 | 0.00 | 0.00 | 0.00 | 66 | 1011.6 |
| 20260507090829 | 68 | 143 | 1.7 | 3.5 | 0.00 | 0.00 | 0.00 | 69 | 1011.5 |
| 20260507090330 | 67 | 281 | 1.7 | 4.3 | 0.00 | 0.00 | 0.00 | 69 | 1011.4 |
| 20260507085830 | 67 | 175 | 0.9 | 4.3 | 0.00 | 0.00 | 0.00 | 70 | 1011.4 |
| 20260507085329 | 67 | 122 | 1.7 | 5.2 | 0.00 | 0.00 | 0.00 | 71 | 1011.4 |
| 20260507084829 | 67 | 40 | 2.6 | 6.1 | 0.00 | 0.00 | 0.00 | 72 | 1011.3 |
| 20260507084330 | 66 | 113 | 1.7 | 6.1 | 0.00 | 0.00 | 0.00 | 72 | 1011.2 |
| 20260507083832 | 65 | 113 | 0.9 | 3.5 | 0.00 | 0.00 | 0.00 | 73 | 1011.2 |
| 20260507083333 | 65 | 81 | 0.9 | 3.5 | 0.00 | 0.00 | 0.00 | 76 | 1011.1 |
| 20260507082829 | 64 | 121 | 0.9 | 3.5 | 0.00 | 0.00 | 0.00 | 76 | 1010.8 |
| 20260507082330 | 64 | 146 | 0.9 | 5.2 | 0.00 | 0.00 | 0.00 | 79 | 1010.9 |
| 20260507081828 | 63 | 165 | 1.7 | 6.1 | 0.00 | 0.00 | 0.00 | 79 | 1010.8 |
| 20260507081330 | 63 | 117 | 1.7 | 6.1 | 0.00 | 0.00 | 0.00 | 78 | 1010.8 |
| 20260507081120 | 64 | 117 | 0.9 | 4.3 | 0.00 | 0.00 | 0.00 | 78 | 1010.9 |
| 20260507080330 | 63 | 100 | 0.9 | 3.5 | 0.00 | 0.00 | 0.00 | 79 | 1010.8 |
| 20260507075828 | 63 | 103 | 0.9 | 2.6 | 0.00 | 0.00 | 0.00 | 80 | 1010.8 |
| 20260507075400 | 62 | 53 | 0.9 | 3.5 | 0.00 | 0.00 | 0.00 | 80 | 1010.6 |
| 20260507075352 | 62 | 121 | 0.9 | 3.5 | 0.00 | 0.00 | 0.00 | 81 | 1010.7 |
| 20260507074331 | 63 | 84 | 0.9 | 3.5 | 0.00 | 0.00 | 0.00 | 80 | 1010.7 |
| 20260507073830 | 62 | 117 | 0.9 | 3.5 | 0.00 | 0.00 | 0.00 | 82 | 1010.6 |
| 20260507073329 | 62 | 136 | 0.0 | 1.7 | 0.00 | 0.00 | 0.00 | 81 | 1010.6 |
| 20260507073119 | 62 | 111 | 0.0 | 1.7 | 0.00 | 0.00 | 0.00 | 81 | 1010.6 |
| 20260507072333 | 61 | 126 | 0.9 | 3.5 | 0.00 | 0.00 | 0.00 | 81 | 1010.5 |
| 20260507071830 | 62 | 74 | 0.9 | 3.5 | 0.00 | 0.00 | 0.00 | 85 | 1010.5 |
| 20260507071331 | 61 | 58 | 0.9 | 3.5 | 0.00 | 0.00 | 0.00 | 84 | 1010.2 |
| 20260507070829 | 61 | 57 | 0.9 | 2.6 | 0.00 | 0.00 | 0.00 | 83 | 1010.2 |
| 20260507070325 | 60 | 77 | 0.9 | 2.6 | 0.00 | 0.00 | 0.00 | 85 | 1010.2 |
| 20260507065822 | 60 | 82 | 0.9 | 2.6 | 0.00 | 0.00 | 0.00 | 86 | 1010.1 |
| 20260507065321 | 60 | 54 | 0.0 | 1.7 | 0.00 | 0.00 | 0.00 | 87 | 1010.0 |
| 20260507064819 | 60 | 87 | 0.0 | 1.7 | 0.00 | 0.00 | 0.00 | 86 | 1009.9 |
| 20260507064319 | 60 | 300 | 0.0 | 1.7 | 0.00 | 0.00 | 0.00 | 88 | 1009.9 |
| 20260507064049 | 59 | 279 | 0.0 | 1.7 | 0.00 | 0.00 | 0.00 | 87 | 1009.9 |
| 20260507063303 | 59 | 317 | 0.0 | 1.7 | 0.00 | 0.00 | 0.00 | 88 | 1009.9 |
| 20260507063046 | 59 | 304 | 0.0 | 1.7 | 0.00 | 0.00 | 0.00 | 88 | 1009.9 |
| 20260507062258 | 59 | 93 | 0.0 | 1.7 | 0.00 | 0.00 | 0.00 | 88 | 1009.9 |
| 20260507061801 | 59 | 93 | 0.9 | 3.5 | 0.00 | 0.00 | 0.00 | 88 | 1009.9 |
| 20260507061244 | 58 | 116 | 0.9 | 3.5 | 0.00 | 0.00 | 0.00 | 89 | 1009.8 |
| 20260507061022 | 58 | 0 | 0.0 | 1.7 | 0.00 | 0.00 | 0.00 | 90 | 1009.8 |
| 20260507060238 | 58 | 337 | 0.0 | 1.7 | 0.00 | 0.00 | 0.00 | 91 | 1009.6 |
| 20260507060016 | 58 | 29 | 0.0 | 1.7 | 0.00 | 0.00 | 0.00 | 91 | 1009.5 |
| 20260507055232 | 58 | 123 | 0.0 | 1.7 | 0.00 | 0.00 | 0.00 | 92 | 1009.5 |
| 20260507054729 | 58 | 101 | 0.0 | 1.7 | 0.00 | 0.00 | 0.00 | 91 | 1009.5 |
| 20260507054229 | 57 | 101 | 0.0 | 1.7 | 0.00 | 0.00 | 0.00 | 91 | 1009.4 |
| 20260507053730 | 57 | 164 | 0.0 | 1.7 | 0.00 | 0.00 | 0.00 | 92 | 1009.3 |
| 20260507053230 | 57 | 247 | 0.0 | 1.7 | 0.00 | 0.00 | 0.00 | 92 | 1009.4 |
| 20260507052732 | 57 | 286 | 0.0 | 1.7 | 0.00 | 0.00 | 0.00 | 93 | 1009.2 |
| 20260507052223 | 57 | 312 | 0.0 | 1.7 | 0.00 | 0.00 | 0.00 | 93 | 1009.2 |
| 20260507051720 | 57 | 106 | 0.0 | 1.7 | 0.00 | 0.00 | 0.00 | 93 | 1009.1 |
| 20260507051215 | 56 | 65 | 0.0 | 1.7 | 0.00 | 0.00 | 0.00 | 93 | 1009.1 |
| 20260507050711 | 56 | 65 | 0.0 | 1.7 | 0.00 | 0.00 | 0.00 | 94 | 1009.0 |
| 20260507050203 | 56 | 65 | 0.0 | 1.7 | 0.00 | 0.00 | 0.00 | 94 | 1009.0 |
| 20260507045700 | 56 | 65 | 0.9 | 2.6 | 0.00 | 0.00 | 0.00 | 94 | 1009.0 |
| 20260507045156 | 56 | 65 | 0.9 | 2.6 | 0.00 | 0.00 | 0.00 | 93 | 1009.0 |
| 20260507044655 | 56 | 79 | 0.0 | 1.7 | 0.00 | 0.00 | 0.00 | 93 | 1008.9 |
| 20260507044413 | 56 | 126 | 0.9 | 1.7 | 0.00 | 0.00 | 0.00 | 93 | 1008.7 |
| 20260507043626 | 56 | 78 | 0.9 | 1.7 | 0.00 | 0.00 | 0.00 | 94 | 1008.7 |
| 20260507043117 | 56 | 117 | 0.9 | 1.7 | 0.00 | 0.00 | 0.00 | 94 | 1008.7 |
| 20260507042612 | 56 | 66 | 0.9 | 1.7 | 0.00 | 0.00 | 0.00 | 94 | 1008.6 |
| 20260507042110 | 55 | 120 | 0.0 | 1.7 | 0.00 | 0.00 | 0.00 | 94 | 1008.6 |
| 20260507041606 | 55 | 150 | 0.0 | 1.7 | 0.00 | 0.00 | 0.00 | 94 | 1008.6 |
| 20260507041346 | 55 | 150 | 0.0 | 1.7 | 0.00 | 0.00 | 0.00 | 93 | 1008.5 |
| 20260507040604 | 55 | 205 | 0.0 | 1.7 | 0.00 | 0.00 | 0.00 | 93 | 1008.4 |
| 20260507040106 | 55 | 229 | 0.0 | 1.7 | 0.00 | 0.00 | 0.00 | 93 | 1008.4 |
| 20260507035557 | 55 | 294 | 0.0 | 1.7 | 0.00 | 0.00 | 0.00 | 93 | 1008.3 |
| 20260507035031 | 55 | 294 | 0.0 | 0.9 | 0.00 | 0.00 | 0.00 | 92 | 1008.4 |
| 20260507034516 | 55 | 276 | 0.9 | 1.7 | 0.00 | 0.00 | 0.00 | 92 | 1008.4 |
| 20260507034018 | 56 | 275 | 0.9 | 1.7 | 0.00 | 0.00 | 0.00 | 93 | 1008.4 |
| 20260507033514 | 55 | 257 | 0.9 | 1.7 | 0.00 | 0.00 | 0.00 | 93 | 1008.3 |
| 20260507033003 | 55 | 307 | 0.0 | 1.7 | 0.00 | 0.00 | 0.00 | 93 | 1008.3 |
| 20260507032456 | 56 | 265 | 0.0 | 1.7 | 0.00 | 0.00 | 0.00 | 92 | 1008.2 |
| 20260507031947 | 56 | 265 | 0.0 | 1.7 | 0.00 | 0.00 | 0.00 | 92 | 1008.2 |
| 20260507031435 | 56 | 265 | 0.0 | 1.7 | 0.00 | 0.00 | 0.00 | 92 | 1008.2 |
| 20260507030931 | 56 | 262 | 0.9 | 1.7 | 0.00 | 0.00 | 0.00 | 92 | 1008.2 |
| 20260507030430 | 56 | 311 | 0.9 | 1.7 | 0.00 | 0.00 | 0.00 | 92 | 1008.2 |
| 20260507025933 | 56 | 61 | 0.0 | 1.7 | 0.00 | 0.00 | 0.00 | 91 | 1008.3 |
| 20260507025429 | 56 | 61 | 0.0 | 1.7 | 0.00 | 0.00 | 0.00 | 91 | 1008.3 |
| 20260507024933 | 57 | 61 | 0.0 | 1.7 | 0.00 | 0.00 | 0.00 | 90 | 1008.3 |
| 20260507024431 | 57 | 61 | 0.0 | 1.7 | 0.00 | 0.00 | 0.00 | 89 | 1008.3 |
| 20260507023929 | 57 | 61 | 0.0 | 1.7 | 0.00 | 0.00 | 0.00 | 89 | 1008.2 |
| 20260507023429 | 58 | 61 | 0.9 | 1.7 | 0.00 | 0.00 | 0.00 | 88 | 1008.2 |
| 20260507022928 | 58 | 47 | 0.9 | 1.7 | 0.00 | 0.00 | 0.00 | 88 | 1008.1 |
| 20260507022427 | 58 | 299 | 0.9 | 1.7 | 0.00 | 0.00 | 0.00 | 88 | 1008.2 |
| 20260507021921 | 58 | 279 | 0.9 | 1.7 | 0.00 | 0.00 | 0.00 | 88 | 1008.3 |
| 20260507021410 | 58 | 331 | 0.0 | 1.7 | 0.00 | 0.00 | 0.00 | 88 | 1008.2 |
| 20260507020904 | 58 | 330 | 0.0 | 1.7 | 0.00 | 0.00 | 0.00 | 88 | 1008.3 |
| 20260507020401 | 58 | 58 | 0.9 | 1.7 | 0.00 | 0.00 | 0.00 | 87 | 1008.3 |
| 20260507015903 | 59 | 55 | 0.9 | 1.7 | 0.00 | 0.00 | 0.00 | 86 | 1008.3 |
| 20260507015407 | 59 | 52 | 0.9 | 1.7 | 0.00 | 0.00 | 0.00 | 85 | 1008.3 |
| 20260507014848 | 59 | 92 | 0.9 | 2.6 | 0.00 | 0.00 | 0.00 | 85 | 1008.4 |
| 20260507014337 | 59 | 278 | 1.7 | 3.5 | 0.00 | 0.00 | 0.00 | 84 | 1008.4 |
| 20260507013835 | 59 | 283 | 2.6 | 5.2 | 0.00 | 0.00 | 0.00 | 84 | 1008.3 |
| 20260507013329 | 60 | 231 | 4.3 | 7.8 | 0.00 | 0.00 | 0.00 | 83 | 1008.2 |
| 20260507012830 | 60 | 246 | 4.3 | 8.7 | 0.00 | 0.00 | 0.00 | 82 | 1008.2 |
| 20260507012331 | 60 | 188 | 3.5 | 8.7 | 0.00 | 0.00 | 0.00 | 83 | 1008.2 |
| 20260507011829 | 60 | 206 | 3.5 | 8.7 | 0.00 | 0.00 | 0.00 | 84 | 1008.2 |
| 20260507011604 | 60 | 209 | 2.6 | 6.1 | 0.00 | 0.00 | 0.00 | 84 | 1008.1 |
| 20260507010828 | 60 | 209 | 2.6 | 7.0 | 0.00 | 0.00 | 0.00 | 83 | 1008.2 |
| 20260507010331 | 60 | 210 | 2.6 | 7.0 | 0.00 | 0.00 | 0.00 | 83 | 1008.3 |
| 20260507005830 | 60 | 222 | 3.5 | 7.0 | 0.00 | 0.00 | 0.00 | 83 | 1008.2 |
| 20260507005329 | 60 | 201 | 4.3 | 8.7 | 0.00 | 0.00 | 0.00 | 83 | 1008.4 |
| 20260507004830 | 60 | 209 | 4.3 | 8.7 | 0.00 | 0.00 | 0.00 | 82 | 1008.3 |
| 20260507004332 | 60 | 219 | 5.2 | 12.2 | 0.00 | 0.00 | 0.00 | 82 | 1008.2 |
| 20260507003829 | 60 | 238 | 5.2 | 12.2 | 0.00 | 0.00 | 0.00 | 81 | 1008.2 |
| 20260507003330 | 60 | 265 | 4.3 | 9.6 | 0.00 | 0.00 | 0.00 | 80 | 1008.2 |
| 20260507002829 | 60 | 261 | 3.5 | 7.8 | 0.00 | 0.00 | 0.00 | 81 | 1008.4 |
| 20260507002333 | 60 | 261 | 3.5 | 7.8 | 0.00 | 0.00 | 0.00 | 82 | 1008.3 |
| 20260507001830 | 60 | 210 | 3.5 | 8.7 | 0.00 | 0.00 | 0.00 | 82 | 1008.3 |
| 20260507001321 | 60 | 207 | 2.6 | 7.8 | 0.00 | 0.00 | 0.00 | 83 | 1008.2 |
| 20260507000843 | 60 | 181 | 1.7 | 7.8 | 0.00 | 0.00 | 0.00 | 84 | 1008.2 |
| 20260507000837 | 60 | 187 | 1.7 | 7.8 | 0.00 | 0.00 | 0.00 | 83 | 1008.2 |
| 20260506235811 | 60 | 208 | 1.7 | 7.0 | 0.00 | 0.00 | 0.00 | 84 | 1008.3 |
| 20260506235312 | 60 | 217 | 2.6 | 7.0 | 0.00 | 0.00 | 0.00 | 84 | 1008.3 |
| 20260506234809 | 60 | 198 | 2.6 | 5.2 | 0.00 | 0.00 | 0.00 | 84 | 1008.1 |
| 20260506234306 | 60 | 208 | 2.6 | 5.2 | 0.00 | 0.00 | 0.00 | 84 | 1008.1 |
| 20260506233806 | 60 | 192 | 1.7 | 5.2 | 0.00 | 0.00 | 0.00 | 84 | 1008.2 |
| 20260506233539 | 60 | 228 | 1.7 | 5.2 | 0.00 | 0.00 | 0.00 | 84 | 1008.2 |
| 20260506232806 | 60 | 144 | 1.7 | 5.2 | 0.00 | 0.00 | 0.00 | 84 | 1008.1 |
| 20260506232534 | 60 | 199 | 1.7 | 5.2 | 0.00 | 0.00 | 0.00 | 85 | 1008.1 |
| 20260506231807 | 60 | 230 | 1.7 | 4.3 | 0.00 | 0.00 | 0.00 | 85 | 1008.2 |
| 20260506231301 | 59 | 227 | 0.9 | 3.5 | 0.00 | 0.00 | 0.00 | 85 | 1008.2 |
| 20260506230800 | 60 | 273 | 0.0 | 1.7 | 0.00 | 0.00 | 0.00 | 85 | 1008.3 |
| 20260506230301 | 60 | 329 | 0.0 | 1.7 | 0.00 | 0.00 | 0.00 | 85 | 1008.5 |
| 20260506225803 | 60 | 248 | 0.9 | 5.2 | 0.00 | 0.00 | 0.00 | 85 | 1008.4 |
| 20260506225306 | 59 | 240 | 0.9 | 5.2 | 0.00 | 0.00 | 0.00 | 86 | 1008.3 |
| 20260506224802 | 59 | 267 | 0.0 | 2.6 | 0.00 | 0.00 | 0.00 | 87 | 1008.2 |
| 20260506224300 | 59 | 340 | 0.0 | 1.7 | 0.00 | 0.00 | 0.00 | 87 | 1008.3 |
| 20260506223755 | 59 | 355 | 0.9 | 1.7 | 0.00 | 0.00 | 0.00 | 87 | 1008.3 |
| 20260506223253 | 59 | 317 | 0.0 | 1.7 | 0.00 | 0.00 | 0.00 | 86 | 1008.3 |
| 20260506222758 | 59 | 231 | 0.0 | 1.7 | 0.00 | 0.00 | 0.00 | 86 | 1008.1 |
| 20260506222250 | 59 | 189 | 0.0 | 1.7 | 0.00 | 0.00 | 0.00 | 86 | 1008.1 |
| 20260506221741 | 59 | 153 | 0.9 | 1.7 | 0.00 | 0.00 | 0.00 | 86 | 1008.1 |
| 20260506221237 | 59 | 128 | 0.9 | 1.7 | 0.00 | 0.00 | 0.00 | 86 | 1008.1 |
| 20260506220735 | 60 | 121 | 0.9 | 1.7 | 0.00 | 0.00 | 0.00 | 85 | 1008.1 |
| 20260506220511 | 60 | 90 | 1.7 | 3.5 | 0.00 | 0.00 | 0.00 | 84 | 1008.1 |
| 20260506215729 | 60 | 105 | 0.9 | 3.5 | 0.00 | 0.00 | 0.00 | 84 | 1008.3 |
| 20260506215231 | 60 | 124 | 1.7 | 7.0 | 0.00 | 0.00 | 0.00 | 83 | 1008.2 |
| 20260506214729 | 60 | 184 | 1.7 | 7.0 | 0.00 | 0.00 | 0.00 | 83 | 1008.1 |
| 20260506214232 | 60 | 257 | 1.7 | 5.2 | 0.00 | 0.00 | 0.00 | 84 | 1008.1 |
| 20260506213730 | 60 | 233 | 2.6 | 5.2 | 0.00 | 0.00 | 0.00 | 85 | 1008.1 |
| 20260506213231 | 59 | 217 | 2.6 | 7.0 | 0.00 | 0.00 | 0.00 | 86 | 1007.9 |
| 20260506212732 | 59 | 268 | 1.7 | 7.0 | 0.00 | 0.00 | 0.00 | 86 | 1007.9 |
| 20260506212229 | 59 | 213 | 1.7 | 4.3 | 0.00 | 0.00 | 0.00 | 86 | 1007.8 |
| 20260506211731 | 60 | 207 | 2.6 | 4.3 | 0.00 | 0.00 | 0.00 | 85 | 1007.7 |
| 20260506211228 | 60 | 229 | 2.6 | 4.3 | 0.00 | 0.00 | 0.00 | 85 | 1007.6 |
| 20260506210731 | 60 | 215 | 1.7 | 3.5 | 0.00 | 0.00 | 0.00 | 85 | 1007.7 |
| 20260506210230 | 60 | 227 | 1.7 | 3.5 | 0.00 | 0.00 | 0.00 | 85 | 1007.8 |
| 20260506205729 | 60 | 212 | 1.7 | 3.5 | 0.00 | 0.00 | 0.00 | 84 | 1007.8 |
| 20260506205231 | 60 | 252 | 1.7 | 4.3 | 0.00 | 0.00 | 0.00 | 83 | 1007.7 |
| 20260506205011 | 61 | 246 | 2.6 | 6.1 | 0.00 | 0.00 | 0.00 | 83 | 1007.7 |
| 20260506204232 | 61 | 223 | 3.5 | 7.0 | 0.00 | 0.00 | 0.00 | 83 | 1007.7 |
| 20260506203729 | 61 | 226 | 3.5 | 7.8 | 0.00 | 0.00 | 0.00 | 83 | 1007.7 |
| 20260506203229 | 61 | 211 | 4.3 | 8.7 | 0.00 | 0.00 | 0.00 | 83 | 1007.8 |
| 20260506202730 | 61 | 238 | 4.3 | 8.7 | 0.00 | 0.00 | 0.00 | 83 | 1007.8 |
| 20260506202230 | 61 | 216 | 3.5 | 7.8 | 0.00 | 0.00 | 0.00 | 83 | 1007.7 |
| 20260506201730 | 61 | 199 | 3.5 | 7.0 | 0.00 | 0.00 | 0.00 | 82 | 1007.8 |
| 20260506201232 | 61 | 205 | 3.5 | 7.8 | 0.00 | 0.00 | 0.00 | 82 | 1007.7 |
| 20260506200730 | 61 | 240 | 3.5 | 7.8 | 0.00 | 0.00 | 0.00 | 82 | 1007.8 |
| 20260506200227 | 61 | 275 | 3.5 | 7.8 | 0.00 | 0.00 | 0.00 | 83 | 1007.7 |
| 20260506195725 | 61 | 211 | 2.6 | 7.8 | 0.00 | 0.00 | 0.00 | 83 | 1007.7 |
| 20260506195225 | 61 | 221 | 2.6 | 4.3 | 0.00 | 0.00 | 0.00 | 84 | 1007.8 |
| 20260506194723 | 61 | 207 | 2.6 | 5.2 | 0.00 | 0.00 | 0.00 | 83 | 1007.8 |
| 20260506194223 | 61 | 215 | 1.7 | 6.1 | 0.00 | 0.00 | 0.00 | 83 | 1007.7 |
| 20260506193727 | 61 | 213 | 2.6 | 6.1 | 0.00 | 0.00 | 0.00 | 83 | 1007.7 |
| 20260506193223 | 61 | 219 | 2.6 | 8.7 | 0.00 | 0.00 | 0.00 | 82 | 1007.7 |
| 20260506192724 | 61 | 205 | 2.6 | 8.7 | 0.00 | 0.00 | 0.00 | 82 | 1007.7 |
| 20260506192219 | 61 | 196 | 3.5 | 7.0 | 0.00 | 0.00 | 0.00 | 82 | 1007.6 |
| 20260506191721 | 62 | 231 | 3.5 | 7.0 | 0.00 | 0.00 | 0.00 | 82 | 1007.5 |
| 20260506191213 | 62 | 232 | 2.6 | 6.1 | 0.00 | 0.00 | 0.00 | 81 | 1007.4 |
| 20260506190707 | 62 | 229 | 2.6 | 8.7 | 0.00 | 0.00 | 0.00 | 81 | 1007.4 |